Flight Track Log - Related Links

Times and Time Zones

All times are in EDT time to prevent confusion due to time zone crossing. See the SKW6509 flight status page for this flight to view local times or setup timezone preferences in your user account.

Time Position Orientation Groundspeed Altitude Reporting Facility
EDT Latitude Longitude Course Direction KTS MPH feet Rate Location/Type
Mon 07:29:08 PM 39.8481 -104.7531 304° West 191 220 6,500  Level Denver Center
Mon 07:30:10 PM 39.8842 -104.8231 304° West 227 261 7,900 1,306 Climbing Denver Center
Mon 07:31:12 PM 39.9322 -104.9167 304° West 292 336 9,200 1,561 Climbing Denver Center
Mon 07:32:13 PM 40.0172 -104.9392 349° North 310 357 11,100 1,902 Climbing Denver Center
Mon 07:33:15 PM 40.1078 -104.9503 355° North 323 372 13,100 2,081 Climbing Denver Center
Mon 07:34:17 PM 40.2047 -104.9561 357° North 325 374 15,400 1,935 Climbing Denver Center
Mon 07:35:19 PM 40.2994 -104.9561 360° North 340 391 17,100 1,694 Climbing Denver Center
Mon 07:36:21 PM 40.3964 -104.9514 North 346 398 18,900 1,452 Climbing Denver Center
Mon 07:37:23 PM 40.4989 -104.9731 351° North 350 403 20,100 1,016 Climbing Denver Center
Mon 07:38:25 PM 40.5972 -104.9881 353° North 354 407 21,000 1,161 Climbing Denver Center
Mon 07:39:27 PM 40.6917 -105.0033 353° North 359 413 22,500 1,500 Climbing Denver Center
Mon 07:40:29 PM 40.7939 -105.0236 351° North 373 429 24,100 1,548 Climbing Denver Center
Mon 07:41:31 PM 40.9094 -105.0817 339° North 383 441 25,700 1,355 Climbing Denver Center
Mon 07:42:33 PM 40.9989 -105.1539 329° Northwest 378 435 26,900 1,113 Climbing Denver Center
Mon 07:43:35 PM 41.0336 -105.2803 290° West 373 429 28,000 1,065 Climbing Denver Center
Mon 07:44:37 PM 41.0583 -105.4317 282° West 375 432 29,100 919 Climbing Denver Center
Mon 07:45:39 PM 41.0811 -105.5650 283° West 382 440 29,900 774 Climbing Denver Center
Mon 07:46:41 PM 41.1031 -105.6992 282° West 384 442 30,700 871 Climbing Denver Center
Mon 07:47:43 PM 41.1283 -105.8589 282° West 395 455 31,700 1,065 Climbing Denver Center
Mon 07:48:45 PM 41.1511 -105.9969 282° West 400 460 32,900 1,113 Climbing Denver Center
Mon 07:49:47 PM 41.1767 -106.1536 282° West 392 451 34,000 532 Climbing Denver Center
Mon 07:50:49 PM 41.1997 -106.3053 281° West 397 457 34,000  Level Denver Center
Mon 07:51:51 PM 41.2222 -106.4494 282° West 415 478 34,000  Level Denver Center
Mon 07:52:53 PM 41.2486 -106.6228 282° West 425 489 34,000  Level Denver Center
Mon 07:53:55 PM 41.2700 -106.7697 281° West 425 489 34,000  Level Denver Center
Mon 07:54:57 PM 41.2978 -106.9408 282° West 425 489 34,000  Level Denver Center
Mon 07:55:59 PM 41.3192 -107.0842 281° West 418 481 34,000  Level Denver Center
Mon 07:57:02 PM 41.3447 -107.2528 281° West 416 479 34,000  Level Denver Center
Mon 07:58:04 PM 41.3661 -107.4014 281° West 425 489 34,000  Level Denver Center
Mon 07:59:06 PM 41.3922 -107.5753 281° West 430 495 34,000  Level Denver Center
Mon 08:00:08 PM 41.4144 -107.7272 281° West 432 497 34,000  Level Denver Center
Mon 08:01:10 PM 41.4356 -107.8789 281° West 434 499 34,000  Level Denver Center
Mon 08:01:53 PM 41.4536 -108.0053 281° West 433 498 34,000  Level Salt Lake Center
Mon 08:02:55 PM 41.4753 -108.1581 281° West 437 503 34,000  Level Salt Lake Center
Mon 08:03:57 PM 41.4997 -108.3356 280° West 437 503 34,000 293 Level Salt Lake Center
Mon 08:04:58 PM 41.5200 -108.4878 280° West 437 503 34,600 780 Climbing Salt Lake Center
Mon 08:06:00 PM 41.5439 -108.6603 281° West 428 493 35,600 919 Climbing Salt Lake Center
Mon 08:07:02 PM 41.5639 -108.8056 280° West 424 488 36,500 919 Climbing Salt Lake Center
Mon 08:08:04 PM 41.5500 -108.9700 264° West 405 466 37,500 732 Climbing Salt Lake Center
Mon 08:09:05 PM 41.4933 -109.0875 237° Southwest 398 458 38,000 244 Climbing Salt Lake Center
Mon 08:10:07 PM 41.3978 -109.2136 225° Southwest 421 484 38,000  Level Salt Lake Center
Mon 08:11:09 PM 41.3142 -109.3244 225° Southwest 414 476 38,000  Level Salt Lake Center
Mon 08:12:11 PM 41.2364 -109.4278 225° Southwest 413 475 38,000  Level Salt Lake Center
Mon 08:13:13 PM 41.1575 -109.5300 224° Southwest 414 476 38,000  Level Salt Lake Center
Mon 08:14:15 PM 41.0661 -109.6522 225° Southwest 415 478 38,000  Level Salt Lake Center
Mon 08:15:16 PM 40.9867 -109.7569 225° Southwest 417 480 38,000  Level Salt Lake Center
Mon 08:16:18 PM 40.8936 -109.8772 224° Southwest 419 482 38,000  Level Salt Lake Center
Mon 08:17:20 PM 40.8069 -109.9914 225° Southwest 420 483 38,000  Level Salt Lake Center
Mon 08:18:22 PM 40.7231 -110.1000 224° Southwest 421 484 38,000  Level Salt Lake Center
Mon 08:19:24 PM 40.6400 -110.2086 225° Southwest 421 484 38,000  Level Salt Lake Center
Mon 08:20:25 PM 40.5558 -110.3161 224° Southwest 421 484 38,000  Level Salt Lake Center
Mon 08:21:27 PM 40.4722 -110.4236 224° Southwest 422 486 38,000  Level Salt Lake Center
Mon 08:22:29 PM 40.3881 -110.5297 224° Southwest 422 486 38,000  Level Salt Lake Center
Mon 08:23:31 PM 40.2889 -110.6558 224° Southwest 419 482 38,000  Level Salt Lake Center
Mon 08:24:32 PM 40.2061 -110.7606 224° Southwest 418 481 38,000  Level Salt Lake Center
Mon 08:25:34 PM 40.1256 -110.8642 225° Southwest 413 475 38,000  Level Salt Lake Center
Mon 08:26:36 PM 40.0344 -110.9778 224° Southwest 407 468 38,000  Level Salt Lake Center
Mon 08:27:38 PM 39.9628 -111.0686 224° Southwest 406 467 38,000  Level Salt Lake Center
Mon 08:28:39 PM 39.8811 -111.1708 224° Southwest 406 467 38,000  Level Salt Lake Center
Mon 08:29:41 PM 39.7825 -111.2928 224° Southwest 407 468 38,000  Level Salt Lake Center
Mon 08:30:43 PM 39.7053 -111.3886 224° Southwest 411 473 38,000  Level Salt Lake Center
Mon 08:31:45 PM 39.6239 -111.4894 224° Southwest 408 470 38,000  Level Salt Lake Center
Mon 08:32:47 PM 39.5419 -111.5900 223° Southwest 407 468 38,000  Level Salt Lake Center
Mon 08:33:48 PM 39.4608 -111.6908 224° Southwest 406 467 38,000  Level Salt Lake Center
Mon 08:34:50 PM 39.3631 -111.8103 223° Southwest 404 465 38,000  Level Salt Lake Center
Mon 08:35:52 PM 39.2808 -111.9097 223° Southwest 404 465 38,000  Level Salt Lake Center
Mon 08:36:54 PM 39.2061 -112.0028 224° Southwest 398 458 38,000  Level Salt Lake Center
Mon 08:37:56 PM 39.1231 -112.1014 223° Southwest 404 465 38,000  Level Salt Lake Center
Mon 08:38:58 PM 39.0178 -112.1528 201° Southwest 407 468 38,000  Level Salt Lake Center
Mon 08:40:00 PM 38.8889 -112.2075 198° South 407 468 38,000  Level Salt Lake Center
Mon 08:41:01 PM 38.7817 -112.2511 198° South 406 467 38,000 49 Level Salt Lake Center
Mon 08:42:03 PM 38.6739 -112.2950 198° South 406 467 38,100  Climbing Salt Lake Center
Mon 08:43:05 PM 38.5658 -112.3392 198° South 406 467 38,000 -48 Descending Salt Lake Center
Mon 08:44:07 PM 38.4569 -112.3819 197° South 408 470 38,000  Level Salt Lake Center
Mon 08:45:09 PM 38.3494 -112.4275 198° South 408 470 38,000  Level Salt Lake Center
Mon 08:46:11 PM 38.2208 -112.4783 197° South 405 466 38,000  Level Salt Lake Center
Mon 08:47:13 PM 38.1186 -112.5417 206° Southwest 408 470 38,000  Level Salt Lake Center
Mon 08:48:15 PM 38.0300 -112.6306 218° Southwest 407 468 38,000  Level Salt Lake Center
Mon 08:49:16 PM 37.9442 -112.7283 222° Southwest 411 473 38,000  Level Salt Lake Center
Mon 08:50:18 PM 37.8592 -112.8269 223° Southwest 415 478 38,000  Level Salt Lake Center
Mon 08:51:20 PM 37.7731 -112.9264 222° Southwest 417 480 38,000 48 Level Salt Lake Center
Mon 08:52:22 PM 37.6667 -113.0461 222° Southwest 432 497 38,100  Climbing Salt Lake Center
Mon 08:53:23 PM 37.5769 -113.1428 221° Southwest 433 498 38,000 -49 Descending Los Angeles Center
Mon 08:54:25 PM 37.4878 -113.2414 221° Southwest 432 497 38,000  Level Los Angeles Center
Mon 08:55:27 PM 37.3981 -113.3422 222° Southwest 433 498 38,000  Level Los Angeles Center
Mon 08:56:29 PM 37.3069 -113.4425 221° Southwest 434 499 38,000  Level Los Angeles Center
Mon 08:57:31 PM 37.1986 -113.5622 221° Southwest 434 499 38,000  Level Los Angeles Center
Mon 08:58:33 PM 37.1075 -113.6617 221° Southwest 435 501 38,000  Level Los Angeles Center
Mon 08:59:35 PM 37.0158 -113.7606 221° Southwest 435 501 38,000  Level Los Angeles Center
Mon 09:00:37 PM 36.9250 -113.8608 221° Southwest 436 502 38,000  Level Los Angeles Center
Mon 09:01:39 PM 36.8283 -113.9647 221° Southwest 436 502 38,000  Level Los Angeles Center
Mon 09:02:41 PM 36.7422 -114.0581 221° Southwest 436 502 38,000  Level Los Angeles Center
Mon 09:03:43 PM 36.6339 -114.1761 221° Southwest 435 501 38,000  Level Los Angeles Center
Mon 09:04:45 PM 36.5378 -114.2792 221° Southwest 434 499 38,000  Level Los Angeles Center
Mon 09:05:47 PM 36.4472 -114.3764 221° Southwest 432 497 38,000  Level Los Angeles Center
Mon 09:06:49 PM 36.3583 -114.4742 222° Southwest 431 496 38,000  Level Los Angeles Center
Mon 09:07:51 PM 36.2678 -114.5703 221° Southwest 429 494 38,000  Level Los Angeles Center
Mon 09:08:53 PM 36.1778 -114.6664 221° Southwest 429 494 38,000  Level Los Angeles Center
Mon 09:09:55 PM 36.0878 -114.7617 221° Southwest 427 491 38,000  Level Los Angeles Center
Mon 09:10:57 PM 35.9994 -114.8572 221° Southwest 423 487 38,000  Level Los Angeles Center
Mon 09:11:59 PM 35.9231 -114.9614 228° Southwest 413 475 38,000  Level Los Angeles Center
Mon 09:13:01 PM 35.8292 -115.0875 227° Southwest 413 475 38,000  Level Los Angeles Center
Mon 09:14:03 PM 35.7525 -115.1908 228° Southwest 409 471 38,000  Level Los Angeles Center
Mon 09:15:05 PM 35.6753 -115.2944 227° Southwest 409 471 38,000  Level Los Angeles Center
Mon 09:16:07 PM 35.5992 -115.3986 228° Southwest 409 471 38,000 -48 Level Los Angeles Center
Mon 09:17:09 PM 35.5222 -115.5019 228° Southwest 409 471 37,900 -629 Descending Los Angeles Center
Mon 09:18:11 PM 35.4367 -115.6164 227° Southwest 409 471 36,700 -1,073 Descending Los Angeles Center
Mon 09:19:12 PM 35.3611 -115.7161 227° Southwest 403 464 35,700 -976 Descending Los Angeles Center
Mon 09:20:14 PM 35.2872 -115.8161 228° Southwest 401 461 34,700 -968 Descending Los Angeles Center
Mon 09:21:16 PM 35.2106 -115.9153 227° Southwest 400 460 33,700 -968 Descending Los Angeles Center
Mon 09:22:18 PM 35.1344 -116.0164 227° Southwest 401 461 32,700 -968 Descending Los Angeles Center
Mon 09:23:20 PM 35.0572 -116.1197 228° Southwest 407 468 31,700 -1,065 Descending Los Angeles Center
Mon 09:24:22 PM 34.9653 -116.2419 227° Southwest 408 470 30,500 -1,065 Descending Los Angeles Center
Mon 09:25:24 PM 34.8864 -116.3456 227° Southwest 411 473 29,500 -968 Descending Los Angeles Center
Mon 09:26:26 PM 34.8053 -116.4489 226° Southwest 416 479 28,500 -1,597 Descending Los Angeles Center
Mon 09:27:28 PM 34.7219 -116.5550 226° Southwest 430 495 26,200 -2,710 Descending Los Angeles Center
Mon 09:28:30 PM 34.6214 -116.6783 225° Southwest 463 533 22,900 -3,097 Descending Los Angeles Center
Mon 09:29:32 PM 34.5289 -116.7908 225° Southwest 446 513 19,800 -2,565 Descending Los Angeles Center
Mon 09:30:34 PM 34.4603 -116.8722 224° Southwest 418 481 17,600 -2,565 Descending Los Angeles Center
Mon 09:31:36 PM 34.3700 -116.9828 225° Southwest 389 448 14,500 -2,244 Descending Los Angeles Center
Mon 09:32:37 PM 34.2978 -117.0700 225° Southwest 377 434 13,000 -732 Descending Los Angeles Center
Mon 09:33:39 PM 34.1961 -117.1219 203° Southwest 385 443 13,000 -389 Level Los Angeles Center
Mon 09:34:25 PM 34.1167 -117.1333 187° South 387 445 12,300 -1,019 Descending Southern California TRACON
Mon 09:35:25 PM 34.0167 -117.1500 188° South 327 376 11,200 -1,200 Descending Southern California TRACON
Mon 09:37:25 PM 33.9167 -117.2833 228° Southwest 265 305 8,700 -722 Descending Southern California TRACON
Mon 09:39:51 PM 33.8164 -117.4392 232° Southwest 256 295 8,000 -203 Descending Los Angeles Center
Mon 09:40:52 PM 33.7811 -117.5086 239° Southwest 252 290 8,000 -488 Level Los Angeles Center
Mon 09:41:54 PM 33.7808 -117.5892 270° West 246 283 7,000 -1,213 Descending Los Angeles Center
Mon 09:42:26 PM 33.7833 -117.6500 273° West 231 266 6,100 -1,565 Descending Southern California TRACON
Mon 09:43:26 PM 33.7833 -117.7167 270° West 201 231 4,600 -1,500 Descending Southern California TRACON
Mon 09:44:26 PM 33.7833 -117.7667 270° West 184 212 3,100 -1,350 Descending Southern California TRACON
Mon 09:45:26 PM 33.7667 -117.8167 248° West 173 199 1,900 -1,000 Descending Southern California TRACON
Mon 09:46:26 PM 33.7333 -117.8333 203° Southwest 129 148 1,100 -750 Descending Southern California TRACON
Mon 09:47:26 PM 33.7000 -117.8500 203° Southwest 131 151 400 -700 Descending Southern California TRACON
Mon 09:50:00 PM 33.6757 -117.8682 132° Southeast  Level Estimated

Login

Don't have an account? Register now (free) for customized features, flight alerts, and more!